www.pogodaiklimat.ru

Погода и климат >> Архив погоды >> Россия >> Чукотка >> Константиновская


ПОГОДА в Константиновской

  • Прогноз погоды в Константиновской
  • Монитор погоды в Константиновской
  • Климат города

АРХИВ ПОГОДЫ в Константиновской

Время (UTC), дата Ветер
(напр.,м/с)
 
Видим.   Явления Облачность Т
(С)
Тd
(С)
f
(%)
Тe
(С)
Тes
(С)
Комфортность P
(гПа)
Po
(гПа)
Тmin
(С)
Tmax
(С)
R
(мм)
R24
(мм)
S
(см)
06 19.04 ЮВ 3
{7}
50 км 10/3 600 м
[Cu hum Cs]
+4.3 -6.7 45 +1 +2 1023.7 1022.6
09 19.04 ЮВ 2
{5}
50 км 9/0
[Ac trans Ci fib]
+3.1 -6.9 48 +1 +1 1023.6 1022.5 +4.5
12 19.04 ЮВ 2
{4}
50 км 3/0
[Ac trans Ci fib]
-0.6 -7.8 58 -4 -4 1023.6 1022.5
15 19.04 Ю 2
{5}
50 км 3/0
[Ac trans Ci fib]
-2.1 -7.5 66 -6 -6 1023.6 1022.5
18 19.04 Ю 1
{3}
50 км 3/0
[Ac trans]
-7.6 -9.8 84 -10 -10 1023.9 1022.8
21 19.04 Ю 2
{4}
50 км 1/0
[Ci fib]
+0.1 -6.3 62 -3 -0 1024.0 1022.9 -7.8 70
00 20.04 Ю 3
{5}
50 км ясно +3.4 -6.9 47 0 +6 1023.8 1022.7
03 20.04 Ю 3
{6}
50 км 3/1 600 м
[Cu hum Ci fib]
+5.3 -6.4 43 +3 +7 1023.0 1021.9
06 20.04 ЮВ 3
{6}
50 км 4/1 600 м
[Cu hum Ci fib]
+4.4 -8.0 40 +2 +3 1021.2 1020.1
09 20.04 ЮВ 1
{5}
50 км 10/0
[Cs]
+1.3 -5.4 61 0 0 1022.0 1020.9 +5.5
12 20.04 ЮВ 1
{4}
50 км 10/0
[Ac trans Cs]
-2.8 -6.6 75 -5 -5 1021.5 1020.4
15 20.04 Ю 1
{3}
50 км 10/0
[Cs]
-5.7 -8.3 82 -8 -8 1021.1 1020.0
18 20.04 ЮВ 2
{4}
50 км 9/0
[Ac trans Ci fib]
-6.3 -8.2 86 -11 -11 1020.8 1019.7
21 20.04 В 1
{3}
50 км 9/3 600 м
[Sc Ac trans]
+0.5 -4.5 69 -1 0 1021.3 1020.2 -6.6 66
00 21.04 Ю 1
{2}
50 км 4/0
[Ac trans Cc]
+5.1 -4.6 49 +5 +12 1021.3 1020.2
03 21.04 ЮЗ 3
{6}
50 км 8/3 1000 м
[Sc Ac trans]
+6.3 -4.0 48 +4 +6 1021.5 1020.4
06 21.04 ЮЗ 2
{5}
50 км 6/3 1000 м
[Sc Ac lent]
+6.5 -4.1 47 +5 +6 1021.9 1020.8
09 21.04 ЮВ 1
{3}
50 км 9/0
[Ac trans]
+5.2 -3.8 52 +5 +5 1022.4 1021.3 +7.2
12 21.04 штиль 0
{2}
50 км 10/0
[Ac und]
+2.3 -3.7 65 +2 +2 1022.5 1021.4
15 21.04 штиль 0
{1}
50 км 10/0
[Ac und]
+1.3 -2.2 77 0 0 1022.5 1021.4
18 21.04 штиль 0
{1}
50 км 10/0
[Ac und]
+1.2 -1.4 83 0 0 1022.6 1021.5
21 21.04 Ю 1
{2}
50 км 10/0
[Ac und]
+4.4 -0.7 69 +3 +4 1022.8 1021.7 +1.0 63
00 22.04 Ю 1
{2}
50 км 8/0
[Ac trans]
+7.1 -1.7 54 +7 +11 1022.5 1021.5
03 22.04 Ю 2
{4}
50 км 4/0
[Ac trans]
+7.8 -3.8 44 +6 +11 1022.2 1021.2
06 22.04 С 2
{5}
50 км 8/3 600 м
[Sc Ac trans]
+8.4 -3.3 43 +7 +8 1022.4 1021.4
09 22.04 З 1
{3}
50 км 8/0
[Ac trans]
+4.7 -1.6 64 +4 +4 1028.8 1021.7 +8.6
12 22.04 СЗ 1
{2}
50 км 8/0
[Ac trans]
+1.1 -2.0 80 -1 -1 1023.0 1021.9
15 22.04 С 1
{2}
50 км 3/0
[Ac trans]
-2.4 -4.0 89 -5 -5 1023.0 1021.9
18 22.04 С 1
{2}
50 км 1/0
[Ci fib]
-4.8 -6.1 91 -7 -7 1023.6 1022.5
21 22.04 штиль 0
{1}
50 км 1/0
[Ci fib]
+3.4 -1.6 70 +3 +7 1024.2 1023.1 -4.9 57
00 23.04 СЗ 1
{3}
50 км 1/0
[Ci fib]
+6.2 -3.0 52 +6 +14 1024.3 1023.2
03 23.04 СЗ 2
{3}
50 км 3/0
[Ci fib]
+7.0 -4.4 44 +5 +12 1024.3 1023.2
06 23.04 СЗ 3
{6}
50 км 3/3 600 м
[Cu hum Ci fib]
+6.9 -4.2 45 +5 +6 1024.6 1023.5
09 23.04 С 2
{6}
50 км 3/0
[Ac cuf Ci fib]
+3.2 -2.2 68 +1 +1 1025.3 1024.2 +7.7
12 23.04 СЗ 2
{4}
50 км 4/0
[Ac trans Ci fib]
-1.7 -3.1 90 -6 -6 1025.8 1024.7
15 23.04 СЗ 1
{5}
50 км 4/0
[Ac trans]
-4.5 -5.4 93 -7 -7 1025.7 1024.6
18 23.04 СЗ 1
{3}
50 км 9/4 600 м
[Sc Ac trans]
-2.5 -3.8 91 -5 -5 1025.9 1024.8
21 23.04 СЗ 2
{4}
50 км 1/0
[Ac trans]
-2.8 -5.8 80 -7 -4 1026.4 1025.3 -4.7 50
00 24.04 С 4
{6}
50 км 9/9 300 м
[St]
-4.4 -6.0 89 -11 -10 1026.1 1025.0

 

Местоположение метеостанции Константиновская (Чукотка, Россия): широта 68.15 долгота 161.10 высота над уровнем моря 8 м.

В архиве по умолчанию представлена погода в Константиновской за последнюю неделю. Архивные данные за месяц целиком и за предыдущие месяцы, начиная с января 2011 года, Вы можете получить, выбрав интересующий диапазон дат из раскрывающегося списка и нажав кнопку "Ввод!".

Внимание! Время в таблицах - всемирное. Для получения местного времени необходимо прибавить поправку, которая в Константиновской равна 12 ч.

Смотрите также архив погоды в соседних городах и на ближайших метеорологических станциях:

Погода в Анюйске (Чукотка, Россия) (28 км)
Погода в Черском (Якутия, Россия) (65 км)
Погода в Колымской (Якутия, Россия) (120 км)
Погода на Островном (Чукотка, Россия) (124 км)
Погода в Бухте Амбарчик (Чукотка, Россия) (170 км)
Погода в Билибино (Чукотка, Россия) (220 км)
Погода в Баимке (Чукотка, Россия) (224 км)
Погода в Раучуе (Чукотка, Россия) (264 км)
Погода в Андрюшкино (Якутия, Россия) (290 км)
Погода в Илирнее (Чукотка, Россия) (304 км)

Пояснения к столбцам:

Ветер - указаны скорость ветра в м/с - средняя за 10 мин, порывы в срок и между сроками (в фигурных скобках) и направление, откуда дует ветер: С - северный, СВ - северо-восточный, В - восточный, ЮВ - юго-восточный, Ю - южный, ЮЗ - юго-западный, З - западный, СЗ - северо-западный.
Видимость - горизонтальная дальность видимости в метрах или километрах. При видимости от 1 до 10 км при отсутствии осадков обычно наблюдается дымка, при ухудшении видимости до 1 км и менее - туман. В сухую погоду видимость может ухудшаться дымом, пылью или мглою.
Явления - указаны атмосферные явления, наблюдавшиеся в срок или в последний час перед сроком; фигурными скобками обозначены явления, наблюдавшиеся между сроками (за 1-3 часа до срока); квадратными скобками обозначены град или гололедные отложения с указанием их диаметра в мм.
Облачность - указаны через наклонную черту общая и нижняя облачность в баллах и высота нижней границы облаков в метрах; квадратными скобками обозначены формы облаков: Ci - перистые, Cs - перисто-слоистые, Cc - перисто-кучевые, Ac - высококучевые, As - высокослоистые, Sc - слоисто-кучевые, Ns - слоисто-дождевые, Cu - кучевые, Cb - кучево-дождевые. Подробнее классификацию облаков см. в Атласе облаков (PDF).
T - Температура воздуха - температура, измеренная на высоте 2 м над землей.
Td - Температура точки росы - температура, при понижении до которой содержащийся в воздухе водяной пар достигнет насыщения.
f - Относительная влажность воздуха - влажноcть воздуха, измеренная на высоте 2 м над землей.
Te - Эффективная температура - температура, которую ощущает одетый по сезону человек в тени. Характеристика душности погоды. При расчете учитывается влияние влажности воздуха и скорости ветра на теплоощущения человека.
Tes - Эффективная температура на солнце - температура, которую ощущает человек, с поправкой на солнечный нагрев. Характеристика знойности погоды. Зависит от высоты солнца над горизонтом, облачности и скорости ветра. Ночью, в пасмурную погоду, а также при ветре 12 м/с и более поправка равна нулю.
P - Атмосферное давление - приведенное к уровню моря атмосферное давление.
Po - Атмосферное давление - измеренное на уровне метеостанции атмосферное давление.
Tmin - Минимальная температура - минимум температуры воздуха на высоте 2 м над землей.
Tmax - Максимальная температура - максимум температуры воздуха на высоте 2 м над землей.
R - Количество осадков - Количество выпавших осадков за период времени, мм. При наведении курсора мыши на число - период времени, за который выпало указанное количество осадков.
R24 - Количество осадков - Количество выпавших осадков за 24 часа, мм.
S - Снежный покров - Высота снежного покрова, см. При наведении курсора мыши на число - состояние снежного покрова и степень покрытия местности в баллах.